Starlink 32330

operational
NORAD ID: 61850 Int'l Des: 2024-202 Owner: SPXS Country: US Constellation: starlink
LEOCIRCULAR

关于 Starlink 32330

正在加载描述...

实时位置

正在加载3D地球...

即将过境

高度历史

Altitude vs Time

uPlot chart will show altitude changes over time

两行轨道根数

1 61850U 24202F 26036.33537829 .00000669 00000-0 33848-4 0 9998
2 61850 43.0024 60.3489 0001406 273.9097 86.1594 15.27576919 70397
Epoch: Feb 5, 2026 • Age: 5 hours

当前状态

高度 487.0 km
速度 7.63 km/s
星下点 42.40°N, 171.24°W
发射日期 Nov 7, 2024
运行时间 1.2 years
类型 internet

技术详情

分类 Payload
质量 730.00 kg
干质量 700.00 kg
总质量 730.00 kg
长度 0.30 m
直径 4.10 m
跨度 29.00 m
形状 Box + pan
制造商 SPXS
平台类型 Starlink V2M
阶段状态 In Orbit
所有者/国家 SPXS/US

大型星座

Loading constellations...